Wind_Speed
51 49 49 48 45 44 43 41 40 39 38 37 36 36 37 37 38 38 38 38 38 38 40 41 43 44 46 47 47 48 50 51 52 53 54 55 56 57 58 60 61 62 63 64 65 66 68 69 71 71 71 71 70 70 71 71 72 74 75 76 78 78 78 77 75 73 72 70 67 66 67 67 65 64 64 65 67 67 67 68 69 71 72 74 76 77 80 82
52 50 49 47 46 44 43 41 39 38 37 36 35 34 34 35 36 37 37 37 37 38 39 41 42 44 45 47 48 49 51 52 53 54 55 56 57 58 59 61 62 63 64 65 67 68 69 69 70 70 70 70 71 72 73 74 76 77 77 77 76 73 72 69 67 65 64 63 61 61 63 64 63 61 61 62 64 66 66 66 66 67 68 70 71 72 73 75
52 51 49 47 46 44 42 41 38 37 36 34 33 33 33 34 35 35 36 36 37 38 39 41 42 44 45 47 49 50 51 53 54 55 56 57 58 59 61 62 63 64 66 67 68 68 68 68 68 68 69 71 73 75 76 77 77 75 72 69 67 65 64 63 61 61 62 61 61 61 64 65 65 65 65 65 66 67 68 68 68 69 70 71 72 73 74 75
51 50 49 47 46 44 42 40 38 36 35 34 33 33 33 34 34 35 36 36 37 38 40 41 43 44 46 47 49 50 51 53 55 56 57 58 59 61 62 63 65 66 67 68 68 67 67 68 69 70 72 74 75 76 75 73 70 67 64 62 61 61 62 63 63 63 64 64 64 65 67 69 70 70 70 71 71 71 72 72 73 74 74 75 76 77 78 79
50 50 49 48 46 45 42 40 37 36 35 34 33 33 34 34 35 35 36 37 38 39 41 42 43 45 46 47 49 51 52 54 56 57 58 59 61 62 64 66 67 67 67 67 67 67 68 70 72 73 74 74 72 69 66 64 62 61 61 61 62 62 63 65 66 67 67 68 68 69 70 73 74 75 75 76 75 75 76 77 78 79 80 80 81 82 82 83
49 49 49 48 47 45 43 41 38 36 36 35 35 35 34 35 35 36 37 38 39 40 41 42 44 45 46 48 50 52 53 55 56 57 59 60 62 64 66 67 66 66 66 67 68 70 72 73 74 73 70 67 64 61 60 60 61 61 62 63 64 65 66 68 69 70 71 71 72 73 74 76 77 78 80 80 79 79 80 81 82 83 84 84 85 86 86 87
49 49 49 49 47 45 43 41 39 37 37 36 36 35 35 35 36 37 38 39 39 40 42 43 45 46 48 50 51 53 54 55 57 58 60 63 65 66 66 66 66 66 67 69 71 73 73 72 69 65 62 60 59 59 60 61 63 64 65 66 67 68 69 70 71 72 73 74 74 75 76 78 80 81 83 83 83 82 83 84 86 87 87 88 89 89 90 91
49 49 49 49 47 45 43 41 40 38 37 37 36 36 36 36 36 37 38 39 40 41 43 44 46 47 49 50 52 53 55 56 58 60 63 64 65 65 65 65 67 68 70 72 72 70 67 64 61 59 59 60 60 62 63 64 65 67 68 69 70 71 72 73 74 74 76 76 76 77 78 80 81 82 84 85 85 85 86 87 88 89 90 90 91 92 93 93
47 48 48 48 46 44 42 41 40 38 37 37 36 36 36 36 36 38 39 40 42 43 44 45 47 48 49 51 53 54 56 58 61 63 64 64 64 64 65 67 69 70 70 69 65 62 59 58 59 60 61 62 63 64 65 66 67 68 69 71 71 72 73 74 75 75 76 77 76 76 77 79 81 82 83 84 84 85 86 87 87 88 89 90 91 92 93 94
46 46 46 46 45 43 42 41 40 38 37 36 35 35 35 36 38 39 41 42 43 44 45 46 47 49 51 52 54 56 59 61 62 63 63 63 64 66 68 69 69 67 64 60 58 57 58 59 61 62 63 64 65 66 67 68 69 70 70 71 71 71 71 71 72 72 73 74 73 72 73 76 79 80 81 81 82 83 84 85 86 87 88 89 90 91 92 93
44 44 44 44 43 43 42 41 39 38 36 36 35 36 37 38 40 41 42 42 43 44 46 47 48 50 52 54 56 59 61 62 62 62 63 64 66 68 68 66 62 59 57 56 57 59 60 62 63 64 65 66 67 67 68 68 67 67 66 66 66 66 66 67 67 68 69 70 70 69 69 73 75 77 79 79 80 81 82 83 84 85 86 86 88 89 91 92
44 43 43 43 42 42 40 39 38 36 36 36 36 37 38 40 41 41 42 43 44 45 46 48 50 52 54 56 58 60 61 61 61 63 64 66 66 64 61 57 55 55 56 58 59 61 62 63 64 65 66 66 65 64 63 62 62 61 61 62 63 63 63 65 66 65 66 68 69 68 67 71 74 75 77 77 78 79 79 81 82 83 83 84 85 86 88 89
43 42 42 42 41 39 38 37 36 36 36 37 38 39 39 40 40 40 41 43 44 46 47 49 52 54 56 58 59 59 60 61 63 64 64 62 59 55 54 54 55 57 58 60 61 63 63 64 64 63 62 60 58 57 57 57 58 58 58 59 60 62 62 63 65 65 65 66 68 67 65 69 73 74 77 77 77 78 78 80 81 82 83 83 84 85 86 87
41 41 40 39 38 37 36 35 35 36 37 38 38 38 38 38 39 40 42 43 45 47 49 51 53 55 57 57 58 59 61 62 62 60 57 54 52 52 53 55 57 58 59 60 61 61 60 59 57 56 55 54 54 54 54 55 56 57 57 57 58 60 61 62 63 64 65 65 67 67 63 66 71 72 75 77 77 78 78 79 81 82 83 83 84 85 86 87
39 39 38 36 35 34 34 34 35 36 36 36 36 36 37 38 39 41 42 44 46 48 51 53 55 55 55 56 58 60 60 58 55 52 50 50 52 54 55 56 58 58 59 58 57 55 53 52 51 51 51 51 51 52 52 53 54 56 57 58 58 59 61 62 62 63 64 65 67 67 63 64 70 72 74 77 78 80 80 81 82 83 85 85 85 86 87 88
37 36 34 33 32 32 32 33 33 34 34 34 34 35 37 38 40 41 43 45 48 50 52 52 53 54 55 57 57 56 53 49 48 48 50 52 53 55 55 56 56 55 54 52 50 48 48 48 48 49 49 50 50 51 51 52 53 54 55 56 57 58 60 62 63 63 63 65 68 70 67 66 70 71 74 77 80 82 82 83 84 85 87 87 88 89 90 91
34 32 31 30 30 31 31 31 31 31 32 33 34 36 37 39 40 42 45 47 49 50 50 51 53 54 55 53 50 47 46 46 48 50 51 52 53 54 53 52 51 49 48 46 46 45 46 47 48 49 50 50 51 51 51 51 52 53 54 56 57 59 60 62 64 64 64 65 68 71 70 69 71 72 73 77 81 83 84 85 86 87 88 89 91 92 93 94
30 29 29 29 29 29 29 30 30 31 32 33 35 36 38 40 42 44 46 46 47 48 50 52 52 51 48 45 43 44 46 47 49 50 51 51 51 50 48 46 44 44 43 44 44 45 45 47 48 49 50 51 52 53 53 52 53 54 55 56 57 59 61 63 64 63 62 64 67 70 70 72 75 74 73 77 82 84 86 87 87 88 90 91 93 94 95 96
29 28 28 28 28 28 28 29 30 31 32 33 35 36 39 40 42 43 43 45 47 49 50 48 45 42 41 41 43 45 46 47 48 49 49 48 46 44 42 41 40 40 41 42 44 45 46 46 48 49 50 52 53 54 54 55 55 55 55 56 56 56 59 63 64 63 62 61 65 69 69 72 77 77 76 78 82 85 87 88 89 90 92 93 94 95 96 98
28 27 27 27 27 27 28 28 29 30 32 33 35 36 38 39 40 41 43 46 46 45 42 40 39 39 40 42 43 45 46 47 47 46 44 41 39 38 38 38 39 40 42 43 44 46 48 48 49 50 51 52 53 54 55 55 55 56 56 56 57 56 57 63 65 65 65 63 64 67 68 72 78 79 79 80 82 85 87 88 89 91 92 93 95 96 96 97
27 26 26 26 26 26 27 28 29 30 31 32 33 34 36 38 40 42 43 42 39 37 36 36 38 40 41 42 43 43 43 43 41 39 37 35 35 35 36 38 40 41 44 45 46 48 49 50 51 52 52 53 54 55 55 55 55 56 56 57 58 58 57 63 67 67 68 67 64 66 68 73 79 80 80 81 83 85 86 88 89 90 91 92 94 94 95 96
25 24 24 24 25 25 25 26 27 28 29 30 32 35 37 39 39 38 36 34 33 34 36 37 38 40 40 41 41 40 38 36 34 32 32 33 35 36 38 40 41 43 45 46 47 49 50 51 52 53 54 54 55 56 56 56 56 55 57 58 59 60 59 60 66 69 73 73 68 66 67 73 79 81 81 82 83 85 87 88 89 90 91 92 93 93 94 94
22 22 22 21 22 22 23 24 25 27 29 32 34 35 35 34 32 30 30 31 33 35 36 37 38 38 38 37 36 34 32 31 31 32 33 35 36 38 40 42 43 45 46 47 48 49 50 52 53 54 54 54 54 56 58 59 59 58 58 60 61 63 63 61 62 66 73 77 73 66 66 72 78 82 84 84 85 86 88 88 89 89 90 91 91 92 92 93
18 18 18 18 19 20 22 24 26 28 30 31 30 29 28 27 27 29 30 32 33 34 35 36 35 35 33 31 29 29 29 30 31 33 35 36 38 41 42 44 45 47 48 49 50 51 52 53 53 53 53 54 54 56 58 61 62 62 62 64 64 65 68 68 66 66 70 77 78 72 67 70 77 82 86 86 86 86 87 87 87 87 87 88 89 90 91 91
14 15 16 17 19 21 23 25 26 26 25 24 23 23 24 26 28 29 30 31 32 32 32 31 30 28 27 26 26 27 29 31 32 35 37 39 41 43 44 46 47 48 49 50 51 52 52 52 53 54 55 56 57 58 60 62 64 66 67 68 69 69 70 71 71 70 70 74 79 77 70 66 71 80 85 86 85 85 85 85 86 86 86 87 88 88 89 90
13 15 16 18 20 21 21 20 19 19 19 20 21 23 25 26 27 28 29 30 30 29 27 25 24 24 24 25 26 28 30 32 34 36 38 41 43 44 46 47 48 49 50 50 51 52 52 53 55 58 60 62 63 63 64 66 67 68 69 69 70 70 71 71 72 72 72 73 77 79 74 67 67 76 83 83 83 83 83 84 84 85 86 86 88 88 89 89
13 14 15 15 14 14 14 14 15 17 19 20 22 23 24 25 27 28 28 27 25 23 22 22 22 23 24 25 27 29 31 34 36 38 40 42 44 46 47 48 49 50 50 51 52 54 57 60 63 66 67 67 68 68 68 69 69 68 68 69 69 69 70 70 71 72 73 74 77 79 79 74 70 77 82 80 80 81 81 82 82 83 84 85 86 87 87 88
9 8 9 9 9 11 13 14 16 17 19 20 21 22 24 25 25 24 23 21 19 19 20 21 21 22 24 26 29 31 34 37 38 41 42 44 45 47 48 50 51 52 55 57 58 61 65 68 69 70 71 71 71 70 70 70 70 69 68 68 69 70 70 71 71 72 73 75 77 78 80 78 74 78 82 79 78 80 80 80 80 81 82 82 83 83 84 85
5 6 7 9 11 12 13 14 15 17 18 19 21 22 22 22 20 19 17 16 17 18 19 19 21 23 26 28 31 33 36 38 40 42 44 45 46 48 50 53 57 60 63 66 67 69 71 72 72 72 72 73 73 73 72 72 72 71 70 70 71 72 72 73 72 72 73 75 77 77 78 80 78 78 80 78 78 79 79 79 78 78 78 79 80 81 82 82
7 7 9 10 10 11 12 14 15 17 18 19 20 19 18 16 15 15 15 16 17 18 18 20 22 26 29 31 33 35 37 39 41 42 43 45 48 51 55 60 64 67 69 71 72 72 72 72 73 73 73 74 75 76 76 75 75 75 74 71 71 71 71 72 72 71 71 72 75 77 77 81 83 81 78 75 76 77 78 79 78 77 76 77 78 79 80 82
7 7 8 8 9 11 12 14 15 17 17 17 15 14 13 12 13 15 16 16 17 18 20 24 27 30 32 34 36 38 40 43 45 47 50 52 56 60 63 65 68 69 70 72 73 73 73 74 74 75 75 75 76 78 80 79 79 79 78 75 72 71 70 69 69 69 69 70 72 74 75 78 82 82 78 75 74 75 75 76 77 76 76 77 77 77 78 80
5 6 7 8 9 11 12 14 15 14 13 11 10 10 11 13 15 16 16 16 19 21 24 28 31 33 35 36 38 40 43 45 49 53 56 59 61 62 63 64 65 67 68 70 72 75 75 76 77 77 78 78 78 79 81 82 82 82 82 81 77 73 70 68 66 65 65 69 73 75 75 76 79 80 77 75 75 75 75 76 77 77 77 76 77 78 78 79
5 5 6 8 10 11 12 12 10 9 8 9 10 10 13 15 16 16 17 19 23 26 29 31 33 34 36 39 42 44 47 50 53 56 58 60 61 63 64 65 66 68 70 71 73 76 77 78 79 80 80 81 81 82 83 84 84 84 85 85 83 80 75 72 69 65 64 67 72 76 77 77 78 77 75 74 75 76 77 78 78 78 78 78 79 80 80 79
4 5 7 9 9 10 8 7 7 7 8 9 10 12 16 16 16 17 20 24 27 29 31 32 34 36 39 42 45 48 51 54 56 58 60 62 63 65 66 68 69 71 72 74 76 77 79 80 81 82 83 84 85 86 86 87 87 87 89 89 87 86 83 79 76 72 69 68 71 75 77 79 79 76 75 75 76 78 78 78 79 79 80 80 80 80 79 77
5 6 7 7 7 5 4 6 7 8 10 10 12 16 17 16 18 21 24 27 29 31 32 34 37 39 42 45 47 50 53 55 57 60 61 63 64 65 67 68 70 72 74 76 78 80 82 83 84 86 87 87 88 89 90 90 90 90 91 91 90 89 87 84 81 79 76 74 75 76 76 80 79 75 75 76 75 77 78 78 78 78 78 78 77 77 76 73
5 6 5 4 3 5 7 9 11 11 12 13 16 17 16 18 22 25 27 29 30 32 35 37 40 42 45 48 50 52 55 56 58 60 62 64 65 67 68 70 72 74 76 77 79 81 83 86 87 88 90 91 91 92 93 93 93 92 92 92 92 91 90 87 83 80 78 75 75 77 78 81 78 71 71 72 73 75 76 75 75 75 76 75 74 73 71 69
5 4 4 4 6 8 10 13 14 13 13 17 18 17 18 22 25 27 28 30 32 35 38 40 43 46 48 50 52 54 56 58 60 62 64 65 66 68 70 72 74 76 78 80 82 83 84 87 89 90 92 93 93 94 95 96 96 95 94 94 93 92 91 91 87 82 78 74 72 74 80 84 79 72 70 71 72 73 72 72 72 72 74 73 71 70 67 66
5 5 6 8 10 11 14 16 13 11 16 19 18 18 21 24 26 28 30 32 36 38 40 43 45 47 49 51 54 56 58 60 62 63 64 66 67 70 72 74 76 79 81 82 84 86 87 88 90 92 94 95 95 95 96 97 98 98 97 97 96 94 92 92 90 86 83 78 72 71 78 85 81 75 75 75 75 74 71 70 70 70 72 71 69 67 66 64
7 9 10 11 13 16 17 14 10 15 20 19 18 21 24 25 27 29 32 35 38 41 43 45 47 49 51 52 55 57 60 61 62 63 65 67 69 72 74 77 79 81 84 85 87 89 90 90 92 93 95 96 97 97 97 98 98 98 98 97 97 96 94 92 91 90 88 85 78 73 76 84 83 79 80 80 79 78 74 71 71 71 72 71 68 67 66 64
11 13 13 15 17 18 15 13 15 19 19 18 20 23 25 27 28 30 34 37 40 43 45 47 48 49 51 54 56 59 60 61 62 64 66 68 71 74 77 80 83 85 87 88 90 91 92 93 93 93 95 97 97 98 99 100 100 99 98 97 97 97 96 93 91 90 91 89 84 79 79 84 84 81 82 83 82 82 78 73 72 73 74 72 70 68 67 66
15 15 15 18 19 16 14 17 19 19 18 19 22 24 26 28 29 33 36 39 42 44 45 46 48 50 52 55 58 59 60 61 62 65 67 70 73 76 79 83 86 89 91 92 93 93 93 94 94 94 95 97 98 99 101 102 102 102 100 99 99 98 97 95 91 89 90 89 84 80 82 86 86 84 85 86 86 85 82 75 71 72 73 72 70 68 67 67
17 16 17 18 15 15 18 20 18 17 19 22 24 25 27 29 31 35 37 40 42 44 45 46 48 51 53 56 58 59 60 61 63 66 68 71 75 78 82 86 89 93 94 95 96 96 96 95 95 95 95 98 99 99 101 102 103 104 103 102 101 99 97 96 94 91 91 91 85 78 79 85 86 85 86 86 86 86 84 78 72 71 72 72 70 68 66 65
17 17 17 15 14 18 20 17 17 19 21 23 24 27 28 30 33 36 38 40 42 43 45 47 49 52 55 56 58 59 60 62 64 67 70 73 77 81 85 88 92 96 98 99 100 100 100 99 99 97 95 95 97 97 99 101 103 104 104 103 102 100 97 96 95 92 90 93 90 80 77 81 84 83 83 83 83 82 82 78 73 71 71 70 69 67 65 63
16 16 15 15 17 20 18 16 19 22 22 24 26 28 30 32 35 37 39 40 41 43 46 48 51 53 55 57 59 59 61 63 65 68 71 75 78 82 87 90 94 98 101 103 104 105 104 104 105 103 99 97 98 98 100 101 103 105 106 105 103 101 99 96 94 90 88 90 94 87 79 79 83 82 81 81 80 80 79 77 74 72 70 67 65 65 63 62
16 15 15 17 19 18 17 18 21 22 24 26 28 30 32 34 36 37 39 40 41 44 46 49 52 54 56 58 60 61 62 64 67 70 74 77 80 84 88 92 95 99 103 105 107 109 109 109 110 110 108 107 107 107 107 107 107 107 106 106 104 102 101 98 94 91 87 86 90 92 85 80 81 80 78 77 77 76 76 74 72 70 69 67 66 65 63 61
15 15 17 18 18 17 18 20 22 23 25 28 30 32 34 35 37 38 39 40 42 44 47 50 53 55 57 59 60 61 63 65 68 72 76 79 82 85 89 93 96 99 103 107 109 111 112 113 113 114 114 113 113 113 113 113 111 109 108 106 105 103 101 99 95 92 89 83 83 88 89 84 83 83 81 78 76 74 73 71 69 66 66 66 65 65 64 62
16 16 18 18 18 18 19 21 22 24 27 30 32 33 35 36 38 38 39 41 43 46 49 51 54 56 57 59 60 61 64 67 70 74 78 81 84 87 90 93 96 99 103 107 110 112 114 115 116 116 116 115 114 114 114 114 113 112 110 108 106 104 102 100 97 94 91 85 80 81 85 84 83 85 85 84 81 77 72 69 68 65 65 65 65 66 66 65
16 17 17 17 18 18 19 21 23 26 29 32 33 34 36 37 38 39 40 42 46 48 50 52 54 56 57 58 59 62 65 69 72 75 79 83 86 89 91 94 97 100 103 106 109 112 114 116 117 117 117 116 115 115 114 114 114 113 112 110 107 105 103 101 99 95 93 90 86 83 85 87 85 85 86 85 84 80 74 71 69 67 65 66 66 66 65 64
16 17 16 17 17 18 19 22 24 28 30 32 34 35 37 38 38 39 41 45 48 50 51 53 55 56 57 58 60 63 67 70 73 76 80 83 87 90 92 95 98 100 103 106 109 112 115 117 119 119 119 117 116 115 115 114 114 113 112 110 107 105 104 101 98 96 93 91 91 89 88 89 88 87 86 85 83 80 76 73 72 69 66 65 64 63 63 62
15 16 16 16 17 18 20 23 25 28 30 32 34 36 37 38 38 41 44 47 49 51 53 54 55 56 57 59 62 66 68 71 74 77 80 84 88 91 93 96 98 101 103 106 108 112 115 118 120 120 120 119 117 116 115 115 114 114 112 110 108 104 103 100 97 94 91 89 91 91 89 88 87 86 86 85 84 81 77 74 72 69 66 64 62 61 61 61
14 15 15 16 17 18 21 24 26 29 31 32 34 36 37 37 39 42 45 48 50 52 53 54 55 56 58 61 64 67 69 72 75 78 81 84 88 92 95 97 100 102 103 106 109 112 115 118 120 121 121 121 120 118 117 115 114 113 112 110 107 103 101 101 98 97 96 95 93 91 90 88 86 84 83 84 85 83 79 75 71 68 65 64 63 61 60 59
13 14 15 16 17 19 22 25 27 29 31 32 34 36 36 37 40 43 46 49 51 53 53 54 55 56 58 61 64 67 70 73 76 79 82 84 88 92 95 98 100 102 104 106 109 112 116 119 121 122 123 123 121 121 120 117 115 113 112 111 108 104 102 102 101 100 101 100 97 95 92 90 88 85 83 83 83 83 79 76 72 69 66 65 65 62 60 59
Wind_Direction
208 210 213 215 218 219 221 224 227 230 232 235 238 240 242 243 245 247 250 253 256 260 263 265 268 270 272 274 275 276 278 279 280 281 282 283 283 284 285 285 285 285 286 286 287 288 289 290 291 291 292 292 293 293 294 294 294 294 293 292 291 290 289 288 287 287 286 285 285 284 283 282 283 282 282 281 280 279 277 276 275 275 274 273 273 272 271 271
208 210 213 214 217 220 223 226 229 232 234 237 240 242 245 246 247 249 252 256 260 264 267 269 271 272 274 275 276 277 278 280 282 282 283 284 284 284 285 286 286 287 287 288 289 290 291 292 292 293 294 294 294 294 294 293 293 292 292 291 290 289 288 288 288 287 287 287 287 286 285 285 284 283 282 281 280 280 279 279 278 276 275 275 274 273 272 271
207 210 212 214 217 220 224 227 231 234 236 239 241 243 245 247 249 250 254 258 263 267 270 272 274 275 275 276 277 278 280 281 282 283 283 284 285 286 286 287 287 288 289 290 291 292 292 293 294 294 294 294 294 294 293 293 293 292 292 291 291 291 290 290 290 290 290 290 289 288 287 287 287 285 283 281 280 280 280 279 278 277 276 275 274 273 273 272
206 210 212 214 217 220 225 229 233 235 237 240 242 244 246 248 250 252 256 262 267 270 272 274 275 276 276 277 278 280 281 281 282 283 285 286 287 287 288 289 290 291 292 292 293 294 295 295 295 295 295 294 294 294 294 294 294 294 294 294 294 294 294 294 294 293 293 292 291 290 288 288 287 286 284 282 281 280 279 278 277 275 274 273 273 272 272 271
206 209 212 215 218 221 225 229 234 236 239 241 243 245 248 250 253 256 261 265 269 271 274 276 277 277 278 279 279 280 281 282 284 285 287 288 289 290 291 292 293 294 295 295 296 296 296 296 296 296 296 296 296 296 296 296 297 297 298 297 297 296 296 295 295 294 293 292 290 289 288 287 287 286 284 283 282 281 280 278 277 275 274 273 272 271 271 270
205 208 212 216 219 223 226 229 233 237 239 242 244 247 250 253 256 259 263 266 270 273 275 277 278 278 278 279 279 281 283 285 287 288 289 290 292 293 294 295 296 297 297 297 297 297 297 297 298 298 298 298 298 299 299 300 300 299 299 298 297 296 295 294 293 292 291 290 290 289 288 287 287 286 285 284 283 282 281 280 279 278 276 275 274 273 272 271
205 208 212 216 219 223 226 230 233 237 240 243 246 249 253 255 258 261 264 268 271 274 276 277 278 278 278 279 281 284 286 288 289 290 292 293 295 296 297 297 298 298 298 298 298 299 299 299 300 300 300 301 301 301 301 300 300 299 298 297 296 295 294 293 293 292 291 290 290 289 288 288 287 286 285 284 284 282 281 280 279 278 278 277 276 275 274 274
206 209 213 217 220 223 227 231 234 237 240 243 246 250 254 257 260 263 266 269 271 273 276 277 277 278 280 282 285 288 289 290 292 293 295 296 297 297 298 298 298 298 299 300 300 300 301 301 302 302 303 302 302 301 300 299 298 298 297 296 296 295 295 294 293 292 291 290 290 289 288 287 285 284 283 283 283 282 281 280 279 278 277 277 276 275 275 274
206 209 213 217 221 224 228 232 235 238 241 244 247 252 256 260 263 265 267 269 272 275 277 278 279 281 283 286 289 290 292 293 294 296 297 297 298 298 298 299 299 300 301 301 301 302 302 303 303 303 303 302 301 300 299 299 298 298 298 297 297 296 295 294 292 291 290 290 289 288 287 286 285 283 282 282 282 282 281 280 279 279 278 277 277 276 275 274
207 210 213 217 221 225 229 232 235 238 242 246 250 255 259 262 264 265 267 270 273 276 278 280 282 285 288 289 291 293 294 295 297 297 298 298 298 299 299 300 301 302 302 302 303 303 304 304 303 302 302 301 300 300 300 300 300 299 298 297 296 294 293 292 291 290 290 289 288 288 287 286 285 285 284 283 283 282 282 281 280 279 279 278 278 277 276 275
207 210 213 217 220 224 228 232 235 240 244 249 253 257 260 262 264 266 268 271 274 277 280 283 286 289 290 292 293 295 296 297 297 297 298 298 299 300 301 302 302 303 303 304 304 304 303 303 302 302 302 302 302 302 301 300 299 298 297 296 295 294 293 291 290 290 290 289 288 288 287 286 285 284 284 284 283 283 282 281 281 280 279 278 277 277 276 275
207 210 213 216 220 224 228 232 237 242 247 251 255 257 259 262 264 267 270 274 277 281 284 287 290 291 292 293 295 296 296 297 297 298 299 300 301 302 302 303 304 304 304 304 304 303 303 303 304 304 303 303 303 302 301 300 299 298 298 297 296 295 294 293 291 290 289 289 288 288 288 287 286 286 285 285 284 283 282 281 281 279 278 277 276 276 275 274
207 210 213 217 221 225 229 234 239 244 248 251 254 256 259 263 266 269 273 278 282 285 288 290 291 292 293 295 295 296 296 297 298 299 300 301 302 303 303 304 304 304 304 304 304 305 306 306 305 305 304 304 303 303 302 301 300 299 298 298 297 296 295 294 293 292 291 291 290 290 289 289 288 287 287 286 285 283 283 282 281 280 279 278 277 276 275 274
207 210 214 217 222 226 231 236 240 244 247 250 254 257 262 266 270 274 278 283 286 288 290 291 292 293 294 295 295 296 297 298 300 300 301 302 303 303 304 304 304 304 305 306 307 307 306 306 306 306 306 306 305 305 304 304 303 302 301 300 300 299 298 297 297 296 295 294 292 291 290 290 289 288 288 288 287 286 285 284 283 282 281 280 279 278 277 276
208 211 214 218 223 227 232 236 240 244 248 252 256 261 266 271 275 279 283 285 287 288 289 290 292 293 294 294 295 297 298 299 300 301 302 302 303 303 304 305 306 307 307 308 308 308 308 309 309 308 309 309 309 309 308 308 308 307 307 306 305 304 302 300 298 297 296 296 295 293 293 292 291 291 291 290 289 288 287 286 284 284 283 282 281 280 278 277
208 211 214 219 224 228 232 237 242 246 252 257 262 267 271 275 279 282 284 286 287 288 289 291 292 293 294 295 297 298 299 300 301 301 302 303 304 306 307 308 309 309 309 309 310 311 312 312 312 312 313 313 313 313 313 312 311 310 309 307 305 303 302 300 299 299 299 299 298 297 296 295 292 291 291 291 290 289 288 286 285 285 284 283 282 281 280 279
207 211 215 220 225 229 234 239 245 251 256 262 266 271 274 278 280 282 284 285 287 288 289 291 292 293 295 296 298 299 299 300 301 302 304 306 308 308 309 309 310 311 312 313 314 316 317 318 318 318 318 317 316 315 314 313 311 309 308 306 305 304 303 302 302 302 302 301 300 299 298 297 294 292 292 291 290 289 288 287 286 286 285 284 283 283 282 280
207 212 217 222 227 232 238 243 249 255 260 265 269 273 276 278 280 282 284 286 287 289 290 291 293 295 296 297 298 299 300 302 304 306 307 308 309 309 310 312 314 316 318 320 320 321 322 322 321 320 319 318 317 316 314 312 311 310 310 309 309 308 307 305 303 303 303 302 301 300 300 299 296 294 293 292 291 290 289 288 288 287 286 285 284 283 283 282
209 214 219 224 230 236 242 248 253 258 263 267 270 274 277 279 281 283 285 287 288 289 291 292 294 295 296 297 299 300 303 305 307 307 308 309 311 313 316 318 320 321 322 323 323 322 322 321 320 320 320 319 318 317 316 315 314 313 312 311 310 309 308 306 305 304 303 303 302 301 302 301 298 297 295 293 292 292 291 291 290 289 288 287 286 285 285 285
211 216 222 227 233 239 245 250 255 260 264 269 272 276 278 280 282 284 286 287 289 290 291 293 294 295 297 299 301 304 306 307 308 310 312 315 318 320 322 323 323 323 323 323 322 322 321 321 321 320 320 319 318 318 317 317 316 315 314 313 311 311 310 309 308 308 306 305 304 304 304 302 299 298 297 296 294 293 292 292 291 290 289 288 288 287 287 286
214 219 224 230 236 241 247 253 258 263 268 272 275 277 279 281 283 285 287 288 289 290 291 293 295 297 300 303 305 307 309 311 314 318 320 322 323 324 324 324 324 324 324 323 323 323 323 322 322 322 322 322 321 321 319 318 318 317 316 316 315 313 314 313 311 311 309 307 306 306 306 303 300 299 298 297 296 294 293 292 291 290 290 290 290 289 289 288
216 221 227 233 240 246 252 258 263 267 271 274 276 279 281 283 285 286 287 287 288 291 293 295 299 302 305 307 309 311 314 317 320 321 323 324 325 325 326 325 324 324 323 323 323 324 324 324 325 325 326 325 325 324 323 321 320 320 319 319 318 316 316 315 314 314 311 309 308 307 306 303 301 300 300 298 297 296 295 294 293 293 293 293 292 291 290 289
220 226 233 240 247 253 259 263 267 270 273 276 279 281 282 283 284 285 286 288 290 294 297 301 304 306 309 311 314 317 320 323 325 327 328 329 328 327 327 326 325 324 324 324 325 326 327 328 329 329 329 329 329 329 328 327 326 325 324 322 321 320 318 317 315 314 312 310 308 307 307 305 304 304 302 301 300 298 297 296 296 296 296 295 294 292 291 290
226 233 240 247 253 258 262 267 270 274 276 278 280 280 281 282 283 285 288 291 295 299 302 306 308 310 314 319 322 325 327 330 332 332 331 331 330 329 328 328 329 329 330 330 331 332 333 334 334 333 333 334 334 334 333 332 330 329 328 327 325 324 321 319 318 316 313 311 310 309 309 309 307 305 302 301 300 298 298 298 298 298 296 295 293 292 291 290
231 238 245 252 258 263 268 271 273 275 276 276 277 278 280 282 285 289 293 297 301 304 307 310 314 320 325 329 330 333 335 335 335 334 334 333 332 332 333 334 335 336 337 337 338 339 340 340 340 339 340 340 340 339 337 335 334 333 332 330 328 326 324 321 320 318 316 313 310 309 310 309 306 303 300 300 300 300 301 301 300 299 297 295 294 294 294 293
239 248 256 262 266 268 270 270 270 270 271 273 276 279 282 286 291 295 299 302 306 309 313 319 326 333 336 337 337 339 339 337 336 336 336 336 336 338 339 340 341 342 342 343 344 345 346 346 346 346 345 345 344 343 341 339 337 336 334 332 329 327 324 322 320 318 316 313 310 309 310 309 307 303 300 301 302 303 303 302 301 299 298 298 297 297 296 296
253 259 262 263 264 264 263 264 265 268 272 276 281 285 289 294 297 300 304 308 313 319 326 334 340 343 343 342 341 340 339 338 338 338 339 341 343 345 346 347 347 348 348 349 350 351 352 352 351 349 348 347 346 345 343 340 339 337 335 333 330 328 326 324 322 319 318 316 313 313 312 313 312 306 303 304 305 305 304 303 302 301 300 299 299 298 297 296
248 248 248 248 249 252 257 263 268 274 280 285 289 293 296 298 302 307 311 318 327 336 344 348 348 346 344 343 342 342 342 342 343 345 346 348 350 351 352 353 353 353 353 354 354 355 355 354 352 351 349 347 346 345 344 341 340 339 337 336 333 332 330 327 325 324 322 319 316 316 315 314 313 308 307 309 309 307 305 304 302 301 300 299 298 297 296 295
207 217 227 238 246 255 264 273 280 285 288 291 294 297 300 305 311 317 324 335 345 352 355 352 349 347 345 344 343 344 345 347 350 352 354 355 355 356 357 358 358 358 357 356 356 356 355 354 352 351 349 348 346 345 344 342 341 341 340 340 337 335 334 331 329 327 324 321 318 317 316 315 313 311 311 312 311 308 306 304 303 302 302 301 300 300 299 298
207 222 236 248 261 273 281 286 288 289 292 295 298 303 310 318 325 336 349 358 0 359 355 349 348 347 346 346 346 348 350 353 355 356 357 359 359 0 1 1 0 359 358 357 356 355 354 353 352 351 350 349 347 346 344 344 344 343 342 342 340 338 336 333 331 329 326 323 320 320 319 317 315 314 314 314 312 309 308 307 306 306 306 305 304 303 301 299
223 241 258 272 282 284 287 289 290 293 298 302 309 320 331 339 351 4 10 8 2 357 353 351 351 350 351 353 354 356 358 360 0 1 2 3 3 3 3 2 1 360 358 357 355 354 354 354 353 352 351 351 349 347 345 346 346 344 343 342 342 340 338 335 333 331 329 326 323 322 321 318 316 315 316 316 314 312 311 310 309 309 309 308 306 303 301 300
248 264 275 281 281 283 288 291 295 301 307 318 336 349 358 8 17 18 13 4 359 356 354 355 356 357 358 0 1 2 3 4 5 5 6 5 5 4 2 1 0 359 358 357 356 354 354 354 353 352 352 351 351 349 347 347 347 345 343 342 342 342 340 338 335 334 333 331 326 324 322 320 317 316 318 319 317 315 314 313 313 312 311 309 307 305 305 305
264 274 279 281 285 290 294 300 311 320 332 355 7 11 20 25 24 15 6 1 360 359 359 360 2 3 4 5 5 6 6 6 7 7 6 5 3 2 1 0 360 359 358 358 357 355 354 354 353 352 352 352 351 350 348 348 348 346 344 343 343 342 342 341 338 336 337 335 330 326 324 322 320 319 321 322 320 319 318 316 316 315 314 313 312 310 310 309
281 286 288 292 297 300 307 330 348 353 12 26 26 29 31 26 16 8 4 3 2 3 4 6 7 8 9 9 9 9 8 7 7 6 5 4 3 2 1 0 360 360 359 358 358 356 354 354 354 353 353 353 352 351 349 349 349 348 346 344 344 344 343 343 341 339 339 338 333 329 328 325 322 324 326 325 324 322 319 319 319 319 318 316 314 313 312 312
298 298 302 307 312 323 4 34 32 35 44 44 39 36 30 18 10 8 7 6 7 8 9 11 12 12 12 11 11 10 9 8 6 5 4 3 3 2 2 1 0 360 360 358 358 357 355 354 354 353 353 353 353 351 350 350 350 349 347 345 345 345 344 344 343 341 340 340 336 333 331 326 326 329 329 327 325 322 321 321 321 320 317 315 314 313 313 313
313 318 326 336 8 49 66 64 57 56 56 48 42 34 20 12 12 11 10 11 13 14 15 15 14 14 14 13 11 10 9 8 6 5 4 3 3 3 2 2 1 1 0 359 358 358 357 355 355 354 353 354 354 352 351 350 351 350 348 346 346 346 344 343 343 342 341 340 338 336 333 327 327 331 329 326 325 323 322 322 321 319 318 316 315 315 314 314
351 2 19 51 72 79 77 70 65 60 51 44 38 25 14 15 15 13 15 17 19 19 19 18 17 16 15 13 11 10 8 7 6 5 5 4 3 3 2 2 2 2 1 0 359 359 358 356 356 355 354 354 354 353 351 351 351 350 348 347 346 346 345 343 343 343 341 341 340 340 335 328 329 332 329 327 326 324 323 323 322 322 319 317 316 316 317 316
45 56 68 77 82 81 75 72 67 49 42 40 30 19 18 18 17 18 22 23 23 22 21 20 19 17 15 12 11 9 8 7 7 6 6 5 4 4 4 4 4 3 3 2 1 359 359 358 357 356 355 354 355 354 352 351 351 351 349 348 347 347 346 344 343 343 342 341 342 344 338 329 330 333 331 330 328 325 326 326 326 325 321 318 320 321 320 319
78 80 81 83 82 77 75 72 54 40 41 36 24 20 20 19 21 25 27 27 26 24 23 21 18 16 14 12 11 9 9 8 7 7 6 5 5 5 6 6 6 6 5 4 3 1 359 359 359 357 355 355 355 354 352 352 352 351 350 349 347 347 347 345 344 344 343 342 344 346 341 332 332 335 333 331 330 329 330 331 330 328 324 323 325 324 322 322
87 86 85 82 77 76 72 59 45 44 41 29 22 22 22 24 28 31 30 28 26 24 22 20 17 15 13 11 11 10 9 9 8 7 6 7 7 8 8 8 8 8 7 6 5 3 1 360 0 359 357 355 355 354 353 352 352 352 351 350 348 348 348 347 346 346 344 344 344 346 343 336 334 336 334 332 332 331 332 335 334 331 328 327 327 326 324 323
88 86 82 77 76 73 61 50 47 43 33 25 24 24 26 30 33 33 30 27 25 23 20 17 15 13 12 11 11 10 10 9 8 8 8 9 10 10 11 11 11 10 10 8 7 5 3 1 1 1 358 356 356 356 354 353 352 353 352 351 350 350 349 347 348 349 346 343 345 347 344 338 336 337 336 334 334 333 333 336 337 333 330 329 329 328 325 323
87 84 78 76 73 63 55 50 44 36 30 27 27 28 32 35 35 32 28 25 23 20 17 15 13 13 12 12 11 11 10 10 9 9 10 11 12 12 13 13 13 13 12 10 9 7 4 2 2 3 0 358 358 357 355 354 354 353 353 352 351 350 350 348 349 351 346 342 345 349 347 340 337 338 337 335 334 334 334 337 339 335 332 331 330 328 325 323
87 82 77 71 60 56 55 47 37 34 32 30 30 33 37 37 34 30 26 24 21 17 15 14 12 12 12 12 12 12 11 10 10 11 11 12 13 14 15 15 15 15 14 12 11 9 6 3 3 4 3 0 359 358 357 357 356 354 354 354 352 351 351 350 350 351 348 343 344 349 349 342 338 338 337 335 335 334 335 338 339 336 333 332 329 326 325 325
85 79 72 60 54 57 53 40 35 35 33 33 35 38 39 36 32 28 26 23 19 16 14 13 12 12 12 12 12 12 12 11 12 12 13 14 15 16 17 17 17 16 15 14 12 11 8 5 3 4 3 2 0 359 359 359 358 356 355 354 352 351 351 351 351 351 350 347 343 345 349 345 339 338 337 336 336 336 336 339 339 336 333 331 329 327 327 327
84 74 65 57 56 56 46 37 36 35 35 37 39 40 39 35 31 29 26 22 18 15 14 13 13 14 14 13 13 13 13 13 13 14 15 16 16 17 17 17 17 16 15 14 13 12 10 7 5 4 4 2 1 0 360 360 360 358 357 355 353 352 351 351 351 351 352 351 345 343 347 346 340 339 338 338 338 337 339 341 339 335 334 333 331 329 329 328
80 69 62 59 56 50 40 36 38 38 39 41 42 40 38 34 32 29 25 21 18 16 15 15 15 16 15 14 14 15 15 14 15 16 17 17 17 17 17 17 17 16 15 14 13 12 11 9 7 5 5 4 2 1 1 0 0 359 358 356 355 353 351 350 352 352 352 353 350 345 345 345 343 341 340 340 340 340 341 341 338 337 337 336 333 331 331 331
75 67 63 60 53 44 38 37 39 41 43 44 43 40 36 34 31 28 24 20 18 17 17 18 18 17 16 15 16 17 16 16 17 18 18 18 17 17 17 16 16 16 15 14 13 12 11 10 9 7 6 5 3 3 2 1 0 359 358 358 356 354 352 351 353 353 351 352 352 348 345 345 345 344 342 342 341 341 343 342 340 341 341 338 336 334 333 333
73 68 63 58 50 41 38 40 42 44 45 44 41 38 36 33 30 27 23 21 20 20 20 20 18 17 17 18 18 18 18 18 18 18 18 18 17 16 16 16 16 16 16 15 13 12 12 11 10 9 7 6 5 3 2 1 1 360 359 359 357 355 353 352 353 352 351 351 352 351 350 348 348 347 345 343 341 340 343 344 344 344 344 342 339 336 334 333
72 69 62 54 47 41 39 42 45 46 45 42 39 36 35 33 29 26 24 22 23 22 22 21 19 18 19 19 19 19 19 19 19 18 18 18 17 16 16 16 16 15 15 15 13 12 12 11 11 10 8 7 6 4 3 2 1 1 360 359 358 357 354 353 353 352 352 353 353 353 353 350 349 348 346 344 341 341 345 346 345 346 346 343 340 337 335 333
70 67 59 52 46 42 42 45 46 45 42 40 38 36 35 32 28 26 25 25 25 23 22 21 20 20 20 20 19 20 20 20 19 18 18 18 17 16 15 15 15 15 15 15 13 12 12 11 11 11 9 8 7 5 4 3 2 1 1 360 359 358 355 353 353 353 353 355 355 354 353 351 350 349 347 344 342 343 346 346 346 347 347 343 340 339 337 335
69 62 57 52 46 42 45 47 46 43 41 39 38 37 34 31 28 27 28 27 26 24 23 22 21 21 21 20 20 20 19 19 18 17 17 17 16 16 15 15 15 15 14 14 13 12 12 11 11 11 10 9 8 6 5 4 3 1 1 0 0 360 357 354 355 355 355 356 356 355 354 352 351 351 350 347 345 344 346 347 347 347 347 344 342 341 339 337
67 59 55 53 47 44 47 46 44 42 40 39 39 37 33 30 28 29 29 27 26 25 23 22 22 21 21 20 19 19 18 17 17 16 16 16 16 15 15 15 15 14 14 14 14 13 12 11 10 10 11 9 8 7 5 4 3 2 2 1 1 1 360 357 356 358 357 356 356 355 354 353 352 352 352 350 347 345 346 347 347 347 348 346 344 342 341 340
Height
10706 10710 10713 10716 10719 10721 10722 10724 10725 10727 10730 10732 10734 10736 10737 10738 10738 10739 10740 10741 10741 10741 10741 10741 10741 10740 10738 10737 10736 10734 10732 10730 10728 10726 10724 10722 10720 10718 10716 10714 10712 10710 10708 10705 10702 10699 10696 10692 10688 10685 10682 10678 10675 10672 10669 10666 10663 10660 10657 10654 10650 10647 10643 10639 10636 10633 10630 10627 10627 10623 10618 10615 10616 10617 10614 10610 10605 10603 10603 10602 10600 10597 10594 10593 10591 10589 10586 10583
10705 10709 10712 10715 10718 10719 10721 10723 10725 10727 10730 10732 10734 10735 10736 10736 10737 10737 10738 10739 10739 10739 10739 10739 10738 10737 10735 10733 10732 10730 10727 10725 10723 10721 10720 10718 10716 10714 10712 10709 10707 10705 10702 10699 10696 10693 10689 10686 10682 10678 10674 10671 10668 10664 10662 10658 10656 10653 10650 10646 10641 10638 10633 10630 10628 10625 10622 10620 10619 10615 10609 10607 10608 10608 10607 10603 10598 10593 10592 10592 10590 10588 10585 10582 10580 10578 10576 10573
10704 10707 10710 10714 10716 10718 10720 10722 10725 10727 10729 10731 10732 10733 10734 10734 10735 10736 10736 10737 10737 10737 10737 10736 10735 10733 10732 10729 10727 10725 10723 10721 10719 10718 10716 10714 10711 10709 10707 10704 10701 10698 10695 10692 10689 10686 10683 10680 10676 10672 10669 10665 10661 10657 10654 10650 10647 10644 10641 10637 10633 10630 10625 10622 10621 10618 10615 10612 10611 10608 10601 10598 10597 10596 10596 10594 10591 10586 10584 10583 10580 10578 10575 10572 10569 10567 10564 10562
10703 10706 10709 10712 10715 10717 10719 10722 10725 10727 10728 10729 10730 10731 10732 10732 10733 10734 10734 10735 10735 10735 10734 10733 10731 10729 10727 10725 10723 10721 10719 10718 10716 10714 10711 10709 10706 10704 10701 10698 10695 10692 10689 10685 10682 10679 10676 10673 10670 10666 10663 10659 10655 10650 10646 10642 10639 10636 10634 10630 10626 10623 10618 10614 10613 10610 10608 10605 10603 10600 10594 10589 10587 10585 10583 10582 10581 10578 10576 10574 10571 10568 10565 10562 10559 10556 10553 10550
10702 10705 10708 10711 10713 10716 10719 10721 10724 10725 10727 10728 10728 10729 10730 10731 10732 10732 10733 10733 10733 10732 10731 10729 10727 10725 10723 10721 10719 10718 10716 10714 10712 10710 10707 10704 10701 10698 10695 10692 10689 10685 10682 10679 10676 10673 10669 10666 10663 10659 10656 10652 10648 10644 10640 10636 10633 10630 10627 10623 10620 10616 10612 10608 10605 10602 10600 10597 10594 10591 10587 10581 10576 10574 10571 10570 10569 10568 10564 10561 10559 10555 10553 10550 10548 10545 10542 10540
10700 10703 10707 10710 10712 10715 10718 10720 10722 10724 10725 10726 10726 10727 10729 10729 10730 10730 10730 10730 10730 10729 10728 10726 10724 10722 10720 10718 10716 10714 10713 10710 10707 10705 10702 10699 10696 10692 10689 10686 10683 10679 10676 10673 10669 10666 10663 10659 10655 10652 10648 10644 10641 10637 10634 10630 10627 10623 10620 10617 10613 10610 10606 10602 10599 10595 10591 10589 10585 10582 10578 10572 10567 10563 10558 10557 10557 10556 10552 10547 10544 10541 10539 10537 10535 10533 10530 10528
10699 10702 10706 10709 10712 10714 10717 10719 10721 10722 10723 10724 10725 10726 10727 10728 10728 10728 10728 10728 10727 10726 10724 10722 10721 10719 10717 10715 10713 10711 10709 10706 10703 10700 10697 10694 10690 10687 10684 10680 10677 10674 10670 10667 10663 10660 10656 10652 10648 10645 10642 10638 10635 10631 10628 10624 10621 10617 10614 10610 10606 10602 10599 10594 10591 10587 10582 10579 10577 10573 10568 10562 10557 10553 10547 10544 10544 10543 10539 10535 10532 10528 10525 10523 10521 10518 10516 10514
10698 10702 10705 10708 10711 10713 10715 10718 10719 10721 10722 10723 10724 10725 10726 10726 10726 10726 10726 10725 10724 10723 10721 10719 10718 10716 10714 10712 10709 10707 10704 10701 10698 10695 10692 10689 10685 10682 10679 10675 10672 10668 10665 10661 10657 10653 10649 10646 10642 10639 10636 10632 10629 10626 10622 10619 10615 10611 10607 10602 10598 10594 10590 10585 10581 10577 10572 10568 10568 10564 10559 10552 10547 10543 10537 10532 10531 10529 10526 10523 10520 10516 10513 10510 10508 10505 10502 10499
10698 10701 10704 10707 10710 10712 10715 10716 10718 10719 10721 10722 10723 10724 10724 10725 10725 10724 10723 10722 10721 10720 10718 10716 10714 10712 10710 10708 10705 10702 10699 10696 10694 10690 10687 10684 10680 10677 10673 10670 10666 10663 10659 10655 10651 10648 10644 10641 10637 10634 10630 10627 10623 10620 10616 10612 10608 10604 10599 10595 10590 10586 10581 10575 10570 10567 10563 10558 10557 10555 10550 10542 10535 10532 10527 10523 10520 10517 10514 10510 10507 10504 10500 10497 10495 10492 10488 10485
10698 10701 10704 10706 10709 10711 10714 10715 10717 10719 10720 10721 10722 10723 10723 10723 10722 10721 10720 10719 10718 10717 10715 10713 10711 10708 10706 10703 10701 10698 10695 10692 10689 10686 10682 10679 10675 10672 10668 10665 10661 10657 10653 10650 10646 10643 10639 10636 10632 10629 10625 10621 10617 10613 10609 10604 10600 10596 10591 10586 10582 10578 10573 10568 10562 10558 10554 10549 10548 10547 10542 10533 10525 10520 10516 10513 10510 10506 10502 10498 10495 10492 10488 10484 10481 10477 10474 10470
10698 10700 10703 10706 10708 10711 10713 10714 10716 10718 10720 10721 10721 10721 10721 10720 10719 10718 10717 10717 10716 10714 10712 10709 10707 10704 10702 10699 10697 10694 10691 10688 10684 10681 10678 10674 10671 10667 10663 10660 10656 10652 10649 10645 10641 10638 10634 10630 10627 10623 10619 10615 10610 10606 10601 10597 10592 10588 10583 10578 10573 10569 10565 10559 10555 10551 10546 10541 10538 10537 10535 10525 10518 10511 10504 10503 10500 10495 10491 10486 10482 10479 10476 10473 10468 10464 10460 10456
10697 10700 10703 10705 10708 10710 10712 10714 10716 10718 10719 10720 10719 10719 10718 10717 10717 10716 10715 10714 10712 10710 10708 10706 10704 10701 10699 10696 10693 10690 10686 10683 10680 10676 10673 10669 10666 10662 10658 10655 10651 10648 10644 10640 10637 10633 10629 10625 10620 10616 10612 10608 10604 10599 10595 10589 10585 10580 10576 10570 10564 10560 10556 10549 10545 10543 10538 10532 10528 10528 10526 10515 10507 10502 10494 10491 10489 10484 10480 10474 10469 10465 10462 10460 10456 10452 10447 10443
10697 10700 10703 10705 10707 10709 10712 10714 10716 10717 10718 10717 10717 10716 10716 10715 10715 10714 10712 10710 10708 10706 10704 10702 10700 10698 10695 10692 10689 10685 10682 10679 10676 10672 10669 10665 10662 10658 10654 10651 10647 10644 10640 10636 10631 10627 10623 10618 10614 10609 10604 10601 10597 10592 10587 10582 10577 10572 10568 10563 10557 10551 10547 10541 10534 10532 10528 10523 10517 10517 10518 10507 10496 10491 10483 10479 10476 10472 10468 10463 10457 10452 10448 10446 10442 10439 10434 10430
10698 10700 10702 10705 10707 10710 10712 10714 10715 10716 10715 10715 10715 10714 10714 10713 10712 10711 10709 10707 10705 10703 10702 10700 10697 10694 10691 10688 10685 10681 10678 10675 10671 10668 10664 10661 10658 10654 10651 10647 10643 10639 10635 10631 10627 10622 10618 10613 10608 10603 10598 10593 10589 10585 10580 10574 10568 10563 10559 10555 10550 10542 10537 10532 10526 10521 10517 10514 10507 10505 10509 10500 10488 10482 10474 10467 10463 10459 10455 10450 10444 10438 10434 10431 10428 10424 10420 10416
10697 10700 10702 10705 10708 10710 10712 10713 10713 10713 10713 10713 10713 10713 10712 10710 10709 10707 10706 10704 10703 10701 10699 10696 10693 10690 10687 10684 10681 10677 10674 10671 10667 10664 10661 10657 10654 10651 10647 10643 10639 10635 10630 10626 10621 10617 10612 10607 10602 10597 10592 10587 10583 10578 10573 10568 10561 10555 10549 10544 10539 10533 10527 10521 10517 10513 10508 10503 10495 10491 10496 10491 10478 10471 10463 10455 10449 10443 10439 10434 10429 10424 10419 10416 10413 10409 10404 10400
10697 10700 10703 10706 10708 10710 10710 10711 10711 10711 10711 10711 10711 10710 10709 10707 10706 10705 10703 10702 10700 10698 10696 10693 10689 10687 10684 10680 10677 10674 10670 10667 10664 10661 10657 10654 10651 10647 10643 10639 10634 10630 10625 10621 10616 10612 10607 10601 10596 10591 10586 10581 10576 10572 10566 10561 10555 10549 10543 10537 10532 10526 10519 10511 10505 10503 10498 10492 10483 10475 10479 10478 10467 10460 10453 10444 10435 10428 10423 10419 10414 10410 10405 10400 10395 10391 10387 10383
10698 10701 10704 10706 10707 10708 10709 10709 10709 10710 10709 10709 10708 10707 10706 10705 10704 10703 10701 10699 10697 10695 10692 10689 10686 10683 10680 10676 10673 10670 10667 10664 10661 10658 10655 10651 10647 10643 10639 10635 10630 10625 10620 10616 10611 10607 10601 10596 10590 10585 10580 10575 10570 10566 10561 10556 10550 10543 10537 10531 10524 10518 10511 10503 10495 10492 10488 10482 10473 10464 10462 10461 10453 10448 10443 10433 10421 10413 10408 10404 10401 10396 10390 10385 10378 10374 10370 10366
10699 10701 10703 10704 10705 10706 10707 10707 10708 10707 10707 10707 10706 10705 10704 10703 10702 10701 10699 10696 10694 10691 10688 10685 10682 10679 10676 10673 10670 10667 10664 10661 10658 10655 10651 10647 10644 10639 10635 10631 10626 10621 10616 10611 10606 10601 10597 10591 10586 10580 10575 10569 10563 10558 10554 10549 10543 10537 10531 10523 10516 10508 10500 10493 10487 10484 10481 10474 10464 10455 10452 10445 10435 10433 10432 10421 10408 10400 10394 10389 10386 10381 10375 10370 10363 10359 10354 10349
10698 10700 10702 10703 10704 10705 10705 10705 10705 10705 10705 10704 10704 10703 10702 10701 10699 10698 10696 10693 10691 10688 10685 10682 10679 10676 10674 10671 10668 10665 10662 10659 10655 10652 10648 10644 10640 10636 10631 10627 10623 10618 10613 10608 10602 10598 10594 10589 10583 10577 10571 10564 10558 10552 10546 10541 10535 10530 10524 10517 10511 10505 10494 10484 10477 10474 10472 10469 10457 10447 10445 10434 10421 10418 10417 10409 10397 10388 10381 10375 10370 10365 10359 10353 10348 10343 10339 10333
10697 10699 10700 10702 10702 10703 10703 10703 10703 10703 10703 10703 10702 10701 10700 10698 10697 10695 10692 10690 10687 10685 10682 10679 10676 10674 10671 10668 10666 10663 10659 10656 10652 10648 10644 10641 10636 10632 10628 10624 10619 10615 10610 10605 10600 10594 10589 10585 10579 10573 10566 10560 10553 10547 10540 10534 10528 10522 10516 10509 10503 10498 10490 10476 10468 10463 10458 10458 10452 10441 10437 10425 10409 10404 10401 10395 10386 10377 10369 10362 10356 10350 10343 10339 10333 10328 10323 10318
10696 10698 10699 10700 10701 10701 10701 10702 10702 10702 10702 10701 10700 10699 10697 10696 10694 10691 10689 10687 10684 10682 10679 10677 10674 10672 10669 10666 10663 10660 10657 10653 10649 10645 10641 10638 10634 10630 10626 10622 10617 10612 10607 10601 10596 10591 10585 10579 10574 10567 10561 10554 10547 10540 10534 10528 10522 10515 10507 10500 10493 10488 10483 10470 10458 10453 10445 10443 10443 10434 10427 10415 10398 10391 10387 10381 10374 10365 10357 10349 10342 10336 10331 10325 10319 10313 10308 10302
10695 10697 10698 10699 10699 10700 10700 10700 10700 10700 10700 10699 10698 10696 10695 10693 10691 10688 10686 10684 10682 10680 10677 10675 10672 10669 10666 10663 10660 10657 10654 10651 10647 10644 10640 10636 10632 10628 10624 10619 10615 10610 10604 10599 10593 10587 10581 10574 10568 10561 10555 10548 10541 10533 10525 10519 10514 10508 10499 10492 10484 10477 10475 10467 10453 10442 10431 10425 10430 10428 10420 10406 10387 10379 10374 10367 10361 10352 10343 10337 10330 10324 10318 10311 10305 10299 10293 10286
10695 10696 10697 10698 10698 10699 10699 10699 10699 10698 10697 10696 10695 10694 10692 10690 10688 10686 10684 10682 10680 10677 10675 10673 10670 10667 10664 10661 10658 10655 10652 10649 10645 10641 10638 10634 10629 10625 10620 10616 10611 10606 10600 10595 10589 10583 10576 10570 10563 10556 10549 10542 10535 10527 10517 10509 10503 10499 10492 10483 10477 10467 10461 10459 10452 10441 10424 10409 10410 10416 10413 10398 10379 10366 10357 10351 10346 10338 10330 10324 10319 10313 10305 10297 10290 10282 10276 10270
10695 10696 10696 10697 10697 10697 10697 10697 10697 10696 10695 10694 10692 10691 10689 10687 10686 10684 10682 10680 10677 10675 10673 10671 10668 10665 10662 10660 10656 10653 10650 10646 10643 10639 10635 10631 10626 10621 10617 10611 10606 10600 10595 10589 10583 10577 10571 10565 10558 10551 10544 10537 10530 10522 10512 10503 10495 10488 10482 10474 10467 10459 10449 10442 10438 10434 10422 10401 10390 10396 10401 10392 10373 10354 10342 10337 10333 10326 10319 10313 10306 10300 10293 10284 10275 10267 10261 10254
10694 10695 10695 10695 10696 10696 10695 10695 10695 10694 10693 10691 10690 10688 10687 10685 10684 10682 10680 10677 10676 10674 10671 10669 10666 10663 10660 10658 10655 10652 10648 10645 10641 10637 10632 10628 10623 10618 10613 10607 10602 10597 10591 10585 10579 10573 10566 10560 10552 10544 10538 10531 10524 10517 10508 10499 10490 10480 10473 10464 10456 10449 10441 10431 10423 10418 10412 10398 10381 10378 10386 10388 10374 10348 10330 10325 10321 10314 10307 10301 10293 10285 10278 10269 10261 10254 10246 10239
10693 10693 10694 10694 10694 10694 10694 10693 10692 10691 10690 10689 10688 10687 10685 10683 10681 10679 10678 10676 10674 10672 10670 10667 10665 10662 10659 10656 10653 10650 10646 10643 10639 10634 10630 10625 10620 10615 10609 10604 10598 10593 10587 10581 10575 10568 10562 10554 10547 10538 10531 10524 10516 10509 10501 10492 10484 10475 10467 10458 10449 10441 10432 10423 10414 10405 10399 10390 10374 10363 10365 10372 10367 10342 10322 10316 10311 10304 10297 10288 10280 10272 10263 10254 10246 10238 10231 10224
10692 10692 10693 10693 10693 10693 10692 10691 10691 10690 10689 10688 10686 10685 10683 10681 10680 10678 10676 10675 10672 10670 10668 10665 10663 10660 10658 10655 10651 10648 10644 10641 10636 10632 10627 10623 10617 10612 10607 10600 10594 10589 10582 10576 10570 10563 10556 10548 10540 10531 10523 10517 10510 10502 10494 10485 10478 10471 10462 10453 10443 10435 10425 10415 10406 10395 10386 10377 10363 10351 10343 10347 10348 10328 10311 10309 10302 10292 10285 10276 10267 10258 10249 10242 10234 10226 10219 10211
10691 10692 10692 10692 10692 10691 10691 10690 10689 10688 10687 10686 10684 10683 10681 10680 10678 10676 10675 10673 10671 10669 10666 10664 10662 10660 10657 10654 10650 10646 10642 10638 10633 10629 10624 10620 10615 10609 10603 10596 10589 10583 10576 10569 10563 10555 10548 10540 10533 10525 10516 10508 10502 10495 10488 10479 10471 10464 10456 10447 10435 10425 10416 10406 10397 10387 10375 10364 10353 10344 10332 10328 10330 10314 10298 10298 10290 10278 10271 10264 10256 10247 10239 10232 10224 10215 10208 10199
10691 10691 10691 10691 10691 10690 10690 10689 10688 10687 10685 10684 10682 10681 10680 10678 10677 10675 10673 10672 10670 10668 10666 10664 10661 10658 10656 10652 10648 10644 10640 10636 10631 10627 10622 10617 10612 10605 10599 10592 10584 10577 10569 10562 10556 10549 10542 10535 10527 10520 10511 10502 10493 10486 10480 10472 10463 10455 10448 10439 10426 10416 10407 10396 10387 10379 10368 10354 10341 10336 10325 10313 10311 10304 10292 10286 10276 10264 10256 10249 10243 10237 10229 10220 10211 10202 10192 10183
10690 10690 10690 10690 10690 10689 10689 10687 10686 10685 10684 10683 10681 10680 10679 10677 10676 10674 10672 10671 10669 10667 10665 10663 10660 10657 10654 10649 10645 10642 10637 10633 10629 10625 10620 10614 10608 10601 10594 10586 10578 10570 10563 10555 10549 10543 10536 10529 10521 10513 10505 10496 10486 10477 10470 10463 10454 10444 10438 10433 10424 10413 10402 10390 10380 10371 10363 10350 10334 10325 10316 10299 10288 10285 10283 10278 10266 10254 10243 10233 10227 10222 10215 10207 10198 10189 10179 10169
10690 10690 10690 10689 10689 10688 10687 10686 10685 10684 10683 10682 10680 10679 10678 10676 10675 10673 10671 10670 10669 10667 10664 10661 10658 10654 10651 10647 10643 10639 10635 10630 10625 10620 10614 10608 10601 10595 10587 10581 10574 10567 10560 10551 10543 10537 10531 10524 10515 10507 10499 10491 10482 10470 10459 10452 10443 10433 10425 10421 10417 10409 10400 10390 10379 10369 10358 10345 10329 10319 10310 10294 10277 10268 10267 10264 10254 10244 10234 10223 10215 10208 10201 10194 10185 10177 10167 10158
10689 10689 10689 10689 10688 10687 10686 10685 10684 10683 10682 10680 10679 10678 10677 10675 10674 10673 10672 10670 10668 10665 10662 10659 10655 10652 10648 10645 10641 10637 10633 10628 10623 10617 10611 10605 10600 10595 10589 10583 10576 10569 10561 10552 10543 10533 10525 10518 10510 10502 10494 10486 10477 10466 10454 10444 10434 10425 10415 10407 10403 10398 10393 10384 10374 10365 10354 10337 10319 10307 10300 10288 10273 10260 10255 10249 10238 10229 10221 10210 10202 10195 10188 10180 10170 10160 10151 10144
10689 10689 10688 10688 10687 10685 10685 10684 10683 10682 10680 10679 10678 10678 10676 10675 10674 10673 10671 10669 10666 10664 10660 10657 10654 10650 10647 10643 10639 10634 10630 10625 10620 10615 10610 10604 10599 10592 10586 10580 10573 10566 10557 10549 10540 10530 10521 10514 10505 10496 10488 10479 10470 10460 10450 10439 10429 10417 10405 10394 10386 10379 10373 10367 10357 10350 10345 10333 10313 10296 10285 10274 10262 10253 10246 10238 10225 10213 10205 10196 10188 10180 10171 10162 10151 10140 10134 10128
10688 10688 10687 10686 10685 10684 10684 10683 10682 10681 10680 10679 10678 10677 10676 10675 10674 10672 10670 10667 10665 10662 10659 10656 10652 10649 10645 10642 10637 10632 10627 10622 10617 10612 10607 10601 10595 10588 10581 10574 10567 10560 10552 10543 10535 10526 10517 10509 10500 10491 10482 10472 10462 10451 10440 10430 10420 10408 10395 10383 10373 10362 10353 10347 10339 10330 10325 10320 10306 10289 10274 10259 10249 10242 10233 10224 10213 10200 10192 10185 10176 10166 10155 10146 10137 10128 10121 10115
10687 10687 10686 10685 10684 10684 10683 10682 10681 10680 10680 10679 10678 10677 10676 10675 10673 10671 10669 10666 10664 10661 10658 10655 10651 10648 10644 10640 10636 10631 10626 10621 10615 10609 10604 10598 10593 10587 10580 10572 10564 10556 10548 10540 10531 10520 10510 10501 10493 10483 10473 10464 10454 10443 10433 10422 10411 10400 10387 10374 10363 10353 10343 10336 10328 10316 10307 10301 10290 10277 10264 10247 10238 10234 10223 10214 10206 10193 10182 10175 10167 10158 10148 10139 10130 10121 10113 10107
10687 10686 10685 10684 10684 10683 10682 10681 10681 10680 10680 10679 10678 10677 10677 10675 10673 10670 10668 10665 10662 10659 10656 10653 10650 10646 10642 10638 10634 10629 10624 10619 10614 10608 10602 10595 10590 10583 10576 10569 10561 10553 10545 10536 10527 10517 10505 10494 10486 10476 10464 10455 10446 10434 10423 10413 10404 10393 10381 10368 10356 10345 10334 10325 10320 10311 10300 10292 10279 10264 10252 10237 10232 10232 10223 10211 10201 10189 10178 10170 10162 10152 10140 10129 10121 10113 10106 10099
10686 10685 10685 10684 10683 10682 10682 10681 10681 10682 10680 10679 10678 10678 10676 10674 10672 10670 10667 10664 10661 10659 10655 10652 10648 10644 10640 10636 10631 10626 10621 10616 10611 10605 10599 10592 10586 10579 10572 10565 10557 10549 10540 10531 10522 10513 10503 10490 10479 10470 10458 10448 10439 10427 10415 10403 10394 10384 10372 10360 10348 10338 10325 10311 10305 10300 10291 10285 10275 10260 10238 10219 10216 10220 10213 10203 10193 10183 10175 10165 10155 10144 10130 10119 10112 10105 10097 10088
10685 10685 10684 10683 10682 10682 10681 10682 10683 10682 10680 10679 10679 10678 10676 10674 10672 10669 10666 10663 10661 10658 10654 10651 10647 10643 10639 10634 10629 10624 10619 10613 10608 10602 10596 10590 10583 10576 10569 10561 10553 10544 10536 10527 10516 10507 10499 10488 10474 10463 10452 10442 10431 10421 10409 10398 10386 10374 10362 10349 10337 10328 10320 10306 10292 10282 10274 10268 10264 10256 10234 10209 10203 10202 10193 10185 10178 10169 10164 10155 10144 10134 10120 10109 10102 10095 10087 10079
10685 10684 10683 10683 10683 10682 10682 10684 10684 10681 10680 10680 10679 10677 10675 10673 10671 10668 10665 10663 10660 10657 10653 10649 10646 10642 10637 10633 10628 10623 10617 10612 10606 10600 10594 10587 10580 10573 10565 10557 10549 10541 10531 10522 10512 10501 10491 10482 10471 10457 10445 10434 10425 10415 10405 10393 10382 10370 10357 10344 10330 10319 10309 10298 10284 10269 10259 10251 10245 10242 10229 10202 10190 10188 10177 10168 10161 10152 10147 10141 10130 10120 10108 10096 10089 10082 10076 10069
10684 10684 10684 10684 10683 10684 10685 10685 10683 10681 10682 10681 10679 10677 10675 10673 10670 10668 10665 10662 10659 10656 10652 10648 10645 10641 10636 10631 10627 10621 10616 10610 10604 10598 10592 10585 10578 10570 10562 10554 10545 10536 10527 10518 10508 10498 10486 10476 10468 10456 10442 10431 10420 10409 10397 10385 10376 10367 10354 10341 10327 10313 10299 10289 10280 10264 10248 10239 10231 10226 10216 10195 10181 10177 10166 10154 10146 10137 10132 10129 10118 10105 10093 10084 10077 10070 10063 10058
10684 10685 10685 10684 10685 10686 10686 10684 10683 10683 10683 10681 10679 10677 10674 10672 10669 10667 10664 10661 10658 10655 10652 10648 10644 10640 10636 10631 10626 10620 10615 10609 10603 10597 10590 10583 10575 10567 10559 10550 10541 10532 10523 10514 10505 10496 10485 10474 10465 10455 10442 10430 10418 10404 10391 10378 10366 10355 10345 10332 10318 10306 10292 10279 10272 10262 10245 10235 10229 10218 10202 10184 10171 10164 10153 10140 10131 10123 10119 10118 10111 10097 10084 10076 10069 10061 10053 10048
10685 10686 10686 10686 10687 10687 10685 10685 10685 10684 10682 10681 10679 10676 10674 10671 10669 10666 10664 10661 10658 10655 10651 10648 10644 10640 10635 10630 10625 10619 10613 10608 10601 10595 10588 10580 10572 10564 10556 10547 10538 10529 10520 10512 10502 10492 10483 10473 10465 10455 10440 10425 10413 10402 10390 10377 10362 10348 10337 10324 10310 10299 10287 10271 10259 10251 10238 10226 10224 10221 10205 10182 10166 10157 10147 10135 10126 10115 10107 10104 10101 10090 10077 10067 10060 10054 10048 10041
10687 10687 10688 10688 10688 10686 10686 10687 10686 10684 10682 10680 10678 10676 10673 10671 10669 10666 10664 10661 10658 10654 10650 10647 10643 10638 10634 10629 10624 10619 10613 10606 10600 10593 10586 10579 10570 10562 10553 10544 10536 10527 10517 10508 10498 10488 10477 10467 10460 10455 10446 10431 10418 10405 10392 10376 10361 10346 10332 10319 10306 10293 10283 10269 10256 10247 10234 10213 10205 10211 10206 10184 10166 10158 10147 10134 10125 10114 10104 10097 10092 10084 10074 10064 10055 10048 10042 10035
10688 10689 10689 10689 10688 10687 10688 10688 10686 10684 10682 10680 10677 10675 10673 10671 10669 10666 10663 10660 10657 10654 10650 10646 10642 10637 10633 10627 10622 10617 10611 10605 10599 10592 10584 10577 10568 10559 10551 10542 10533 10524 10514 10505 10494 10483 10472 10459 10448 10443 10438 10430 10419 10406 10392 10377 10358 10340 10324 10311 10299 10286 10275 10265 10255 10246 10235 10214 10192 10191 10197 10184 10164 10154 10145 10132 10121 10110 10101 10093 10083 10075 10069 10062 10053 10043 10035 10028
10690 10690 10691 10690 10689 10689 10689 10688 10685 10684 10682 10679 10678 10675 10673 10671 10669 10666 10663 10660 10657 10654 10650 10646 10641 10637 10631 10626 10620 10614 10609 10603 10597 10590 10582 10574 10565 10557 10548 10539 10530 10521 10511 10501 10490 10479 10467 10454 10440 10428 10417 10406 10394 10381 10370 10360 10349 10334 10320 10306 10292 10279 10267 10258 10250 10240 10231 10219 10195 10177 10179 10179 10164 10151 10143 10132 10120 10108 10098 10089 10080 10071 10062 10053 10044 10036 10029 10022
10691 10691 10691 10691 10690 10690 10689 10687 10685 10684 10682 10680 10678 10676 10674 10672 10669 10666 10664 10661 10657 10654 10650 10645 10640 10635 10630 10625 10620 10614 10608 10602 10595 10588 10579 10571 10563 10554 10546 10537 10528 10519 10508 10498 10488 10477 10464 10451 10436 10421 10408 10394 10381 10368 10355 10345 10337 10328 10316 10303 10287 10274 10262 10251 10243 10233 10225 10221 10207 10181 10167 10164 10154 10139 10130 10123 10114 10104 10095 10087 10079 10070 10059 10047 10037 10028 10019 10012
10692 10692 10692 10692 10691 10691 10689 10687 10686 10684 10682 10680 10678 10676 10674 10672 10669 10667 10664 10661 10657 10653 10649 10644 10639 10634 10629 10624 10619 10613 10607 10601 10593 10585 10577 10569 10561 10552 10544 10535 10525 10516 10506 10496 10486 10476 10465 10452 10437 10421 10407 10393 10380 10368 10356 10342 10331 10320 10308 10296 10282 10269 10257 10244 10234 10226 10218 10213 10209 10194 10174 10160 10148 10132 10116 10106 10097 10092 10089 10083 10073 10063 10053 10041 10030 10019 10010 10002
10692 10693 10693 10693 10692 10691 10690 10688 10686 10684 10682 10680 10679 10677 10674 10672 10669 10667 10664 10661 10657 10653 10648 10643 10638 10634 10629 10624 10619 10613 10606 10599 10592 10584 10576 10568 10560 10551 10542 10533 10524 10514 10505 10495 10485 10475 10464 10452 10439 10424 10410 10396 10381 10368 10356 10343 10330 10316 10303 10292 10280 10266 10251 10238 10227 10218 10209 10199 10192 10184 10168 10150 10140 10129 10114 10099 10088 10082 10079 10073 10064 10056 10046 10035 10024 10014 10006 9998
10693 10694 10694 10693 10693 10692 10690 10688 10686 10684 10683 10681 10679 10677 10675 10672 10670 10667 10664 10660 10656 10652 10647 10643 10638 10633 10628 10623 10618 10612 10605 10598 10590 10583 10575 10567 10559 10550 10541 10531 10522 10512 10503 10494 10484 10474 10463 10451 10440 10426 10411 10398 10385 10371 10356 10343 10331 10318 10305 10292 10280 10264 10247 10235 10225 10214 10205 10194 10179 10168 10157 10143 10131 10121 10109 10097 10086 10076 10069 10063 10056 10050 10041 10032 10023 10014 10004 9995
10695 10695 10695 10694 10693 10692 10690 10689 10687 10685 10683 10681 10680 10677 10675 10673 10670 10667 10664 10659 10655 10651 10646 10641 10637 10632 10627 10622 10616 10609 10603 10596 10589 10582 10575 10566 10557 10548 10539 10529 10520 10510 10500 10491 10482 10471 10461 10450 10438 10426 10413 10400 10388 10375 10360 10344 10330 10317 10305 10291 10278 10265 10249 10236 10228 10216 10204 10192 10177 10163 10155 10144 10132 10120 10107 10093 10078 10068 10062 10057 10050 10045 10038 10029 10021 10012 10002 9993
10696 10696 10695 10695 10694 10692 10691 10689 10687 10686 10684 10682 10680 10678 10675 10673 10670 10667 10663 10659 10655 10650 10646 10641 10636 10631 10626 10620 10614 10608 10601 10595 10588 10580 10572 10564 10555 10546 10536 10526 10516 10507 10498 10489 10479 10468 10458 10448 10438 10427 10415 10400 10385 10372 10359 10347 10333 10319 10308 10294 10280 10267 10250 10232 10218 10204 10187 10176 10170 10161 10149 10138 10129 10120 10107 10090 10073 10061 10055 10050 10043 10038 10034 10024 10014 10007 9999 9990
10697 10697 10696 10695 10694 10693 10691 10689 10688 10686 10685 10683 10680 10678 10676 10673 10670 10667 10663 10659 10654 10650 10646 10641 10636 10631 10625 10620 10614 10607 10601 10594 10587 10579 10571 10563 10554 10544 10534 10524 10515 10506 10496 10486 10476 10465 10454 10444 10433 10423 10412 10400 10387 10370 10354 10343 10334 10321 10306 10291 10277 10266 10250 10228 10208 10194 10179 10166 10158 10150 10141 10131 10122 10113 10103 10089 10073 10059 10048 10041 10034 10029 10025 10017 10007 10000 9993 9986